Flag for Canada Weather past 2 weeks in Edmundston, New Brunswick, Canada

Now
52 °F

Cool.


Feels Like: 50 °F
Forecast: N/A
Wind: 6 mph from Northwest

Location: St Leonard

Current Time: Jun 3, 2015 at 8:46:04 PM

Latest Report: Jun 3, 2015 at 8:00 PM


Visibility: N/A

Pressure: 30.25 "Hg

Humidity: 73%

Dew point: 44 °F

Location of EdmundstonLocation

Historic Weather in Edmundston — Graph

°F

Edmundston temperature yesterday

Maximum temperature yesterday: 49 °F (at 12:00 AM)
Minimum temperature yesterday: 40 °F (at 7:00 AM)
Average temperature yesterday: 44 °F

Past Weeks' High & Low Weather Summary

 TemperatureHumidityPressure
High84 °F (May 27, 5:00 PM)100% (May 28, 4:00 AM)30.42 "Hg (May 28, 4:00 AM)
Low29 °F (May 23, 1:00 AM)21% (May 24, 4:00 PM)29.50 "Hg (May 20, 12:00 PM)
Average55 °F70%30.03 "Hg
* Reported May 19 7:00 PM — Jun 3 7:00 PM, Edmundston, Weather by CustomWeather, © 2015

Note: Actual official high and low records may vary slightly from our data, if they occured in-between our weather recording intervals... More about our weather records

Advertising

Edmundston weather history for previous 24 hours

 ConditionsComfort  
Time TempWeatherWind HumidityBarometerVisibility
7:00 PM
Wed, Jun 3
53 °FCool.5 mph67%30.24 "HgN/A
6:00 PM53 °FCool.6 mph66%30.24 "HgN/A
5:00 PM52 °FCool.2 mph70%30.25 "HgN/A
4:00 PM51 °FCool.3 mph73%30.26 "HgN/A
3:00 PM50 °FCool.3 mph74%30.26 "HgN/A
2:00 PM49 °FCool.7 mph73%30.26 "HgN/A
1:00 PM47 °FCool.8 mph71%30.27 "HgN/A
12:00 PM44 °FQuite cool.6 mph84%30.27 "HgN/A
11:00 AM43 °FQuite cool.8 mph87%30.26 "HgN/A
10:00 AM40 °FQuite cool.7 mph91%30.25 "HgN/A
9:00 AM39 °FChilly.7 mph93%30.24 "HgN/A
8:00 AM38 °FChilly.9 mph94%30.23 "HgN/A
7:00 AM37 °FChilly.7 mph97%30.23 "HgN/A
6:00 AM37 °FChilly.5 mph97%30.22 "HgN/A
5:00 AM38 °FChilly.6 mph97%30.22 "HgN/A
4:00 AM37 °FChilly.3 mph98%30.22 "HgN/A
3:00 AM37 °FChilly.3 mph97%30.21 "HgN/A
2:00 AM38 °FChilly.5 mph95%30.22 "HgN/A
1:00 AM39 °FChilly.7 mph95%30.22 "HgN/A
12:00 AM40 °FQuite cool.1 mph95%30.22 "HgN/A
11:00 PM
Tue, Jun 2
40 °FQuite cool.6 mph93%30.23 "HgN/A
10:00 PM41 °FQuite cool.3 mph94%30.24 "HgN/A
9:00 PM42 °FQuite cool.6 mph86%30.25 "HgN/A
8:00 PM43 °FQuite cool.5 mph95%30.26 "HgN/A
Weather by CustomWeather, © 2015

See weather overviewHow to use our weather pages